2017-019E

Last updated on Thu Jun 22 2017 00:15:04 GMT+0000 (Coordinated Universal Time)

1 42755U 17019E 17172.57187903 .00002854 00000-0 11797-3 0 9996 2 42755 51.6428 19.0933 0010942 3.7869 356.3192 15.27328051 1830

Satellite not in orbit

2017-019E